Location: Finkenwalde
(53.3770°N, 14.6418°E)
Time: 09:32:13
(UTC+00:00)

SL-16 R/B - Pass Details

Date: 05 February 2023
Orbit: 842 x 846 km, 71.0° (Epoch: 19 March)

Event Time Altitude Azimuth Distance (km) Brightness Sun altitude
Rises 16:19:46 0° 186° (S) 3,388 5.7 -4.7°
Reaches altitude 10° 16:22:18 10° 179° (S) 2,458 4.9 -5.0°
Maximum altitude 16:27:34 42° 110° (ESE) 1,188 2.7 -5.8°
Drops below altitude 10° 16:32:53 10° 41° (NE) 2,477 4.1 -6.5°
Enters shadow 16:35:05 - 36° (NE) 3,286 4.8 -6.8°
